Weather History for Andalusia, AL

Change the Weather History Date:

Tuesday, November 13, 2012

  Actual Average (KCEW) Record (KCEW)
Temperature  
Mean Temperature 52 °F -  
Max Temperature 62 °F 68 °F 83 °F (1993)
Min Temperature 42 °F 41 °F 28 °F (2013)
Degree Days  
Heating Degree Days 13    
Growing Degree Days 2 (Base 50)    
Moisture  
Dew Point 33 °F    
Average Humidity 53    
Maximum Humidity 83    
Minimum Humidity 26    
Precipitation  
Precipitation 0.00 in - - ()
Sea Level Pressure  
Sea Level Pressure 30.28 in    
Wind  
Wind Speed 10 mph (NNE)    
Max Wind Speed 14 mph    
Max Gust Speed 20 mph    
Visibility 10 miles    
Events      
Averages and records for this station are not official NWS values.
T = Trace of Precipitation, MM = Missing Value Source: NWS Daily Summary

Daily Weather History Graph

Daily Weather History Graph

Search for Another Location

Airport:

Trip Planner

Search our weather history database for the weather conditions in past years. The results will help you decide how hot, cold, wet, or windy it might be!

Date:

Astronomy

Nov. 13, 2012 Rise Set
Actual Time 6:11 AM CST 4:47 PM CST
Civil Twilight 5:46 AM CST 5:13 PM CST
Nautical Twilight 5:16 AM CST 5:42 PM CST
Astronomical Twilight 4:48 AM CST 6:11 PM CST
Moon 5:48 AM CST (11/13) 4:42 PM CST (11/13)
Length of Visible Light 11h 27m
Length of Day
10h 36m
Waning Crescent, 0% of the Moon is Illuminated
Nov 13
Waning Crescent
Nov 13
New
Nov 20
First Quarter
Nov 28
Full
Dec 6
Last Quarter

Hourly Weather History & Observations

Time (CST) Temp. Windchill Dew Point Humidity Pressure Visibility Wind Dir Wind Speed Gust Speed Precip Events Conditions
12:18 AM 51.8 °F - 44.6 °F 76% 30.28 in 10.0 mi North 13.8 mph - N/A   Scattered Clouds
12:56 AM 48.9 °F - 44.1 °F 83% 30.27 in 10.0 mi NNE 10.4 mph 18.4 mph N/A   Clear
1:56 AM 48.0 °F - 42.1 °F 80% 30.27 in 10.0 mi NNE 11.5 mph - N/A   Clear
2:56 AM 46.0 °F 41.0 °F 39.0 °F 76% 30.28 in 10.0 mi North 10.4 mph - N/A   Clear
3:56 AM 45.0 °F 40.6 °F 37.0 °F 74% 30.29 in 10.0 mi North 8.1 mph - N/A   Clear
4:56 AM 43.0 °F 37.7 °F 36.0 °F 76% 30.30 in 10.0 mi NNE 9.2 mph - N/A   Clear
5:56 AM 42.1 °F 36.6 °F 34.0 °F 73% 30.32 in 10.0 mi NNE 9.2 mph - N/A   Clear
6:56 AM 42.1 °F 36.1 °F 33.1 °F 70% 30.34 in 10.0 mi NNE 10.4 mph - N/A   Clear
7:56 AM 44.1 °F 37.7 °F 32.0 °F 63% 30.35 in 10.0 mi NNE 12.7 mph 19.6 mph N/A   Clear
8:56 AM 48.9 °F - 30.0 °F 48% 30.34 in 10.0 mi NE 11.5 mph 18.4 mph N/A   Clear
9:56 AM 53.1 °F - 30.0 °F 41% 30.33 in 10.0 mi NNE 10.4 mph - N/A   Clear
10:56 AM 55.9 °F - 28.9 °F 36% 30.31 in 10.0 mi NNE 8.1 mph 16.1 mph N/A   Clear
11:56 AM 60.1 °F - 28.9 °F 31% 30.27 in 10.0 mi NE 9.2 mph - N/A   Clear
12:56 PM 61.0 °F - 30.0 °F 31% 30.25 in 10.0 mi North 11.5 mph - N/A   Clear
1:56 PM 62.1 °F - 28.0 °F 28% 30.23 in 10.0 mi North 12.7 mph - N/A   Clear
2:56 PM 62.1 °F - 27.0 °F 26% 30.22 in 10.0 mi North 10.4 mph - N/A   Clear
3:56 PM 61.0 °F - 28.9 °F 30% 30.23 in 10.0 mi NNE 10.4 mph - N/A   Clear
4:56 PM 54.0 °F - 30.9 °F 41% 30.23 in 10.0 mi NNE 4.6 mph - N/A   Clear
5:56 PM 51.1 °F - 33.1 °F 50% 30.24 in 10.0 mi North 3.5 mph - N/A   Clear
6:56 PM 50.0 °F - 33.1 °F 52% 30.26 in 10.0 mi NNE 4.6 mph - N/A   Clear
7:56 PM 48.9 °F - 30.9 °F 50% 30.26 in 10.0 mi NNE 6.9 mph - N/A   Clear
8:56 PM 48.9 °F - 30.0 °F 48% 30.27 in 10.0 mi NNE 5.8 mph - N/A   Clear
9:56 PM 48.9 °F - 30.0 °F 48% 30.26 in 10.0 mi NNE 5.8 mph - N/A   Clear
10:56 PM 46.9 °F - 30.0 °F 52% 30.25 in 10.0 mi NE 4.6 mph - N/A   Clear
11:56 PM 46.0 °F 43.9 °F 28.9 °F 51% 30.23 in 10.0 mi ENE 4.6 mph - N/A   Clear